Dewpoint
64 66 68 70 70 70 69 69 69 69 69 70 70 69 69 69 68 68 67 65 64 62 61 61 61 60 60 59 59 58 56 54
63 63 64 67 69 69 68 68 68 69 69 68 68 68 68 68 68 67 66 64 63 62 61 61 61 60 59 58 58 58 55 52
63 62 63 64 64 67 68 68 68 68 68 68 66 62 64 66 63 66 65 64 63 62 62 61 60 60 59 58 58 54 53 53
63 63 64 65 63 65 65 65 65 65 65 66 62 61 61 59 63 66 65 64 64 63 62 62 61 58 58 57 55 52 52 54
62 64 65 65 63 65 63 63 63 64 64 65 62 61 61 58 63 62 63 64 62 63 63 61 59 58 55 55 53 53 50 53
61 63 66 66 63 65 63 63 64 64 64 66 64 62 61 59 58 57 58 60 60 62 62 63 61 61 60 58 57 54 49 51
61 62 65 66 64 63 63 63 63 63 64 66 63 61 61 60 58 57 58 58 59 59 62 60 61 61 61 60 56 54 53 52
61 61 64 64 64 64 64 63 62 65 62 64 66 62 62 60 58 58 57 57 58 59 59 61 61 61 61 61 59 56 54 55
60 61 63 65 64 63 63 62 65 67 66 68 67 64 62 62 59 59 57 57 58 60 61 60 62 62 61 63 62 60 57 58
61 61 63 65 64 62 62 63 64 66 65 67 68 65 62 63 59 58 57 57 59 60 61 62 63 62 62 62 63 60 62 59
61 62 62 64 64 62 63 62 63 62 64 64 66 65 62 62 58 58 58 57 58 60 62 63 63 62 60 63 63 63 60 59
61 63 63 65 64 64 62 61 62 61 61 60 64 65 63 62 58 58 59 58 61 63 61 62 60 59 58 58 59 60 61 61
61 61 63 65 63 62 61 60 60 60 59 59 61 63 63 64 59 59 61 61 63 63 62 61 62 63 61 59 60 59 60 60
59 61 62 63 63 61 59 59 59 59 58 60 61 64 63 62 61 60 63 61 63 63 63 62 62 63 60 59 54 54 58 57
58 61 62 63 62 61 61 61 61 59 59 59 60 62 62 62 62 63 65 65 64 64 65 64 62 63 63 60 56 51 50 50
56 60 61 64 64 61 62 60 59 59 59 59 60 61 62 63 63 65 65 65 65 65 66 65 64 61 61 60 59 57 51 43
52 57 60 63 65 64 63 61 60 58 59 59 60 62 64 64 66 66 67 67 65 64 64 63 62 60 59 57 55 52 52 48
53 56 57 62 66 66 64 63 60 59 59 59 63 65 67 67 67 66 64 63 62 62 62 62 60 57 52 51 49 46 42 42
53 56 54 60 65 66 65 64 63 61 61 65 64 63 63 64 64 63 63 62 61 60 58 56 55 53 52 49 46 43 45 41
53 53 55 58 64 66 66 65 63 61 64 63 62 63 62 63 62 62 61 59 58 56 55 52 51 49 47 44 43 43 42 41
Wind_Speed
23 22 20 19 20 20 22 22 22 21 20 19 17 16 17 15 13 12 12 11 10 10 9 7 5 3 1 1 3 6 9 3
23 22 21 20 19 20 22 22 21 20 19 18 17 15 14 14 13 11 11 11 10 9 8 6 5 4 2 2 6 10 10 3
24 24 22 20 19 17 19 19 19 18 17 17 17 14 15 15 14 17 11 10 9 9 8 6 6 6 5 5 9 11 2 5
26 25 24 22 20 20 19 19 18 18 17 17 15 14 14 14 15 14 11 10 9 8 7 9 11 12 11 9 11 4 5 1
27 25 23 23 20 20 19 18 18 18 18 18 16 14 13 12 13 12 12 12 11 11 10 12 14 3 1 3 1 4 6 4
27 27 24 22 20 21 20 20 19 18 20 19 16 14 15 15 13 14 13 14 14 15 17 5 3 6 5 4 5 6 4 4
27 27 24 24 20 21 21 20 20 20 20 20 19 16 14 15 14 14 15 15 14 10 8 8 10 7 7 6 5 5 3 6
27 28 26 24 23 19 17 17 19 13 16 20 20 16 13 15 14 14 13 11 11 11 11 11 9 9 9 7 5 5 6 4
28 28 27 25 25 22 20 20 15 15 15 9 18 17 14 14 14 14 13 12 9 8 9 9 4 5 6 11 6 7 6 6
27 27 28 26 24 22 20 16 16 18 14 14 19 20 16 16 14 14 12 10 13 12 11 9 7 9 9 7 10 6 10 7
27 27 28 28 24 21 19 18 19 17 19 20 22 22 20 17 16 15 13 14 13 10 10 11 10 12 11 14 11 11 7 9
26 25 26 25 21 19 20 18 19 19 19 20 21 20 20 18 17 14 15 14 9 10 9 8 11 8 7 3 6 6 9 10
27 29 27 26 26 26 23 23 21 20 20 19 19 19 20 18 15 16 15 14 13 14 13 12 6 5 7 11 9 12 10 7
29 31 30 29 26 24 21 22 22 21 19 19 19 20 19 18 17 16 17 15 13 9 10 10 8 8 7 6 9 5 12 8
30 33 33 30 28 24 21 21 19 20 20 19 21 21 20 20 19 15 15 13 9 11 11 11 9 1 4 5 4 6 6 5
31 31 33 31 30 27 28 26 26 23 22 21 20 21 21 21 20 17 13 12 11 10 6 5 6 6 3 2 3 5 4 6
29 31 32 31 31 28 28 26 22 21 20 22 21 21 22 21 17 14 10 7 8 9 9 8 8 7 7 7 4 4 4 7
29 31 32 33 33 33 29 30 24 23 22 22 19 15 12 13 13 12 12 12 13 12 11 13 11 8 6 5 6 6 5 7
32 33 33 34 35 34 29 29 26 26 26 21 19 17 16 16 18 16 15 13 12 12 10 9 8 7 5 4 2 2 1 3
28 31 33 33 34 34 31 28 24 21 24 22 20 20 19 20 19 17 17 16 13 12 11 9 8 7 6 3 5 4 1 0
Wind_Direction
161 167 157 150 150 152 147 149 153 153 153 151 153 155 152 152 154 152 149 152 152 145 141 146 148 144 114 33 312 290 290 276
167 171 171 168 164 153 152 154 157 157 157 155 156 156 157 157 157 163 159 158 157 151 149 156 163 167 184 266 272 267 247 274
172 174 174 173 173 163 156 157 158 157 159 158 159 172 177 165 190 154 166 163 161 160 162 177 198 202 209 238 265 250 272 221
176 176 176 176 178 168 174 171 174 178 180 173 183 186 189 183 155 154 164 165 165 171 184 201 221 211 182 215 236 14 239 268
180 178 177 181 183 172 181 179 183 188 189 182 201 192 186 186 160 172 179 183 185 187 197 220 219 284 213 303 339 230 252 211
186 182 177 186 186 176 187 184 189 189 190 184 206 202 183 203 185 189 196 182 216 194 198 169 219 220 248 252 241 275 222 213
190 188 181 186 200 185 196 194 191 193 186 185 207 201 192 200 199 196 199 186 209 209 144 199 202 202 207 222 217 229 268 279
189 191 185 188 199 189 199 200 186 193 198 190 207 203 189 202 202 208 205 208 206 215 219 201 221 217 194 214 218 223 204 235
191 192 188 194 197 195 197 194 169 187 198 191 198 210 190 212 208 210 211 203 213 214 230 236 201 267 255 193 218 207 235 228
194 194 190 192 194 197 198 181 204 184 197 189 198 213 212 207 211 207 213 204 206 210 217 217 244 233 227 226 220 248 216 242
191 195 197 192 195 193 196 188 201 192 197 200 196 211 210 205 213 206 210 211 216 215 221 200 220 229 212 196 208 229 282 268
187 188 196 190 191 200 194 197 196 201 199 203 187 202 203 206 214 205 207 216 210 214 223 217 238 219 250 260 237 252 217 241
186 191 190 189 193 194 194 198 198 202 199 199 189 196 197 199 218 203 203 210 203 202 212 234 237 259 264 258 228 217 231 238
194 197 191 194 197 197 199 198 196 200 195 193 194 197 196 196 213 202 198 212 221 220 214 228 233 224 250 268 271 253 220 183
198 198 196 195 200 197 198 195 195 195 195 194 194 197 195 202 204 209 194 210 217 221 217 218 226 116 272 272 264 267 3 279
202 198 199 196 199 195 196 196 195 195 192 192 190 193 195 195 199 206 206 203 214 208 201 183 152 166 151 236 286 305 265 273
210 202 198 198 194 204 195 203 199 189 193 186 186 188 193 194 196 196 178 154 141 147 139 152 159 158 168 161 207 253 253 263
204 204 199 199 193 203 198 197 193 187 186 184 178 172 163 155 144 147 144 151 145 149 159 172 196 191 185 190 212 225 238 257
197 202 204 197 191 193 205 195 201 186 180 171 158 149 150 154 145 148 151 152 149 153 157 149 164 168 168 163 177 207 239 282
192 204 205 196 193 192 199 198 199 190 170 163 168 165 155 152 145 147 146 149 149 145 141 138 127 128 138 135 139 111 91 356